Colima, Mexico

5:52 PM CDT on August 18, 2017 (GMT -0500)
Colima

Weather History for MMIA - March, 2013

Change the Weather History Date:

Friday, March 8, 2013

  Actual Average Record
Temperature  
Mean Temperature 78 °F -  
Max Temperature 92 °F 84 °F 97 °F (2015)
Min Temperature 64 °F 67 °F 56 °F (2017)
Cooling Degree Days 13    
Growing Degree Days 28 (Base 50)    
Moisture  
Dew Point 52 °F    
Average Humidity 36    
Maximum Humidity 57    
Minimum Humidity 12    
Precipitation  
Precipitation 0.00 in - - ()
Sea Level Pressure  
Sea Level Pressure 30.01 in    
Wind  
Wind Speed 6 mph ()    
Max Wind Speed 17 mph    
Max Gust Speed -    
Visibility 7.2 miles    
Events      
Averages and records for this station are not official NWS values.
T = Trace of Precipitation, MM = Missing Value Source: Averaged Metar Reports

Daily Weather History Graph

Daily Weather History Graph

Search for Another Location

Airport or City:

Trip Planner

Search our weather history database for the weather conditions in past years. The results will help you decide how hot, cold, wet, or windy it might be!

Date:

Astronomy

Mar. 08, 2013 Rise Set
Actual Time 7:08 AM CST 7:02 PM CST
Civil Twilight 6:46 AM CST 7:24 PM CST
Nautical Twilight 6:20 AM CST 7:49 PM CST
Astronomical Twilight 5:55 AM CST 8:14 PM CST
Moon 4:32 AM CST (3/8) 4:18 PM CST (3/8)
Length of Visible Light 12h 37m
Length of Day
11h 54m
Waning Crescent, 11% of the Moon is Illuminated
Mar 8
Waning Crescent
Mar 11
New
Mar 19
First Quarter
Mar 27
Full
Apr 2
Last Quarter

Hourly Weather History & Observations

Time (CST) Temp. Heat Index Dew Point Humidity Pressure Visibility Wind Dir Wind Speed Gust Speed Precip Events Conditions
2:49 AM - - 57 °F % 29.99 in 4 mi NE 2.2 mph - -   Haze
5:48 AM 69 °F - 53 °F 47% 29.98 in 4 mi NE 4.5 mph - -   Haze
6:08 AM 69.8 °F - 50.0 °F 49% 30.05 in 8.0 mi North 11.5 mph - N/A   Clear
6:44 AM 69.8 °F - 50.0 °F 49% 30.06 in 8.0 mi North 9.2 mph - N/A   Scattered Clouds
7:47 AM 71.6 °F - 50.0 °F 46% 30.07 in 8.0 mi North 13.8 mph - N/A   Scattered Clouds
8:48 AM 72 °F - 48 °F 32% 30.03 in 6 mi NE 4.5 mph - -   Haze
8:50 AM 75.2 °F - 50.0 °F 41% 30.09 in 8.0 mi NNE 11.5 mph - N/A   Scattered Clouds
9:50 AM 80.6 °F - 50.0 °F 34% 30.10 in 8.0 mi NNE 11.5 mph - N/A   Scattered Clouds
10:51 AM 84.2 °F 82.8 °F 53.6 °F 35% 30.10 in 8.0 mi Calm Calm - N/A   Scattered Clouds
11:50 AM 90 °F - 45 °F 12% 30.00 in 6 mi South 2.2 mph - -   Haze
11:52 AM 84.2 °F - 48.2 °F 29% 30.09 in 8.0 mi South 9.2 mph - N/A   Scattered Clouds
12:48 PM 84.2 °F - 42.8 °F 23% 30.06 in 8.0 mi SSW 9.2 mph - N/A   Scattered Clouds
1:45 PM 86.0 °F - 46.4 °F 25% 30.04 in 8.0 mi SSW 11.5 mph - N/A   Scattered Clouds
2:40 PM 86.0 °F 84.2 °F 53.6 °F 33% 30.02 in 8.0 mi SSW 17.3 mph - N/A   Scattered Clouds
2:53 PM 91 °F - 57 °F 22% 29.91 in 6 mi SE 8.9 mph - -   Haze
3:40 PM 86.0 °F 84.9 °F 57.2 °F 37% 29.98 in 8.0 mi WSW 17.3 mph - N/A   Scattered Clouds
4:45 PM 84.2 °F 82.8 °F 53.6 °F 35% 29.97 in 8.0 mi SSW 11.5 mph - N/A   Scattered Clouds
5:40 PM 80.6 °F 80.3 °F 53.6 °F 39% 29.98 in 8.0 mi West 11.5 mph - N/A   Scattered Clouds
5:53 PM 85 °F - 56 °F 27% 29.88 in 6 mi SE 6.7 mph - -   Haze
6:40 PM 77.0 °F - 57.2 °F 50% 30.02 in 8.0 mi Calm Calm - N/A   Mostly Cloudy
7:40 PM 75.2 °F - 59.0 °F 57% 30.03 in 8.0 mi Calm Calm - N/A   Mostly Cloudy
8:40 PM 78 °F - 49 °F 25% 29.92 in 6 mi NW 2.2 mph - -   Haze
8:50 PM 73.4 °F - 57.2 °F 57% 30.04 in 8.0 mi Calm Calm - N/A   Mostly Cloudy
11:40 PM 71 °F - 48 °F 33% 29.94 in 6 mi NE 2.2 mph - -   Haze